Flag for Kuwait Weather past 2 weeks in Kuwait City, Kuwait

90 °F


Feels Like: 87 °F
Forecast: 82 / 97 °F
Wind: 10 mph from Northeast

Location: Kuwait International Airport

Current Time: Oct 10, 2015 at 1:08:30 AM

Latest Report: Oct 10, 2015 at 12:00 AM

Visibility: 10 mi

Pressure: 29.83 "Hg

Humidity: 27%

Dew point: 52 °F

Historic Weather in Kuwait City — Graph


Kuwait City temperature yesterday

Maximum temperature yesterday: 102 °F (at 3:30 PM)
Minimum temperature yesterday: 84 °F (at 2:00 AM)
Average temperature yesterday: 93 °F

Past Weeks' High & Low Weather Summary

High113 °F (Oct 7, 1:00 PM)94% (Oct 1, 3:30 AM)30.04 "Hg (Oct 1, 3:30 AM)
Low72 °F (Sep 30, 6:00 AM)6% (Sep 25, 3:00 PM)29.68 "Hg (Sep 25, 2:30 PM)
Average94 °F30%29.81 "Hg
* Reported Sep 24 11:00 PM — Oct 9 11:30 PM, Kuwait City, Weather by CustomWeather, © 2015

Note: Actual official high and low records may vary slightly from our data, if they occured in-between our weather recording intervals... More about our weather records


Kuwait City weather history for previous 24 hours

Time TempWeatherWind HumidityBarometerVisibility
11:30 PM
Fri, Oct 9
91 °FClear.12 mph24%29.83 "Hg10 mi
11:00 PM91 °FClear.9 mph24%29.83 "Hg10 mi
10:30 PM91 °FClear.9 mph24%29.83 "Hg10 mi
10:00 PM93 °FClear.9 mph23%29.83 "Hg10 mi
9:00 PM93 °FClear.9 mph26%29.83 "Hg10 mi
8:30 PM93 °FClear.8 mph24%29.83 "Hg10 mi
8:00 PM95 °FClear.7 mph23%29.83 "Hg10 mi
7:30 PM95 °FClear.9 mph23%29.83 "Hg10 mi
7:00 PM97 °FClear.10 mph20%29.80 "Hg10 mi
6:30 PM97 °FClear.10 mph20%29.80 "Hg10 mi
5:30 PM99 °FClear.10 mph21%29.80 "Hg5 mi
5:00 PM99 °FSunny.13 mph21%29.77 "Hg5 mi
4:30 PM100 °FSunny.12 mph20%29.77 "Hg4 mi
3:59 PM100 °FSunny.14 mph20%29.77 "Hg4 mi
3:30 PM102 °FClear.14 mph18%29.77 "Hg4 mi
3:00 PM100 °FClear.14 mph20%29.77 "Hg4 mi
2:30 PM100 °FClear.15 mph20%29.77 "Hg4 mi
2:00 PM100 °FClear.17 mph20%29.77 "Hg4 mi
1:30 PM100 °FHaze.17 mph20%29.77 "Hg3 mi
1:00 PM99 °FHaze.18 mph21%29.80 "Hg2 mi
12:30 PM99 °FSunny.20 mph21%29.80 "Hg2 mi
12:00 PM99 °FSunny.18 mph21%29.83 "Hg2 mi
11:30 AM99 °FSunny.20 mph22%29.83 "Hg3 mi
11:00 AM97 °FSunny.20 mph22%29.83 "Hg4 mi
10:30 AM95 °FSunny.20 mph25%29.86 "Hg4 mi
10:00 AM95 °FSunny.18 mph23%29.86 "Hg10 mi
9:30 AM93 °FSunny.18 mph26%29.86 "Hg10 mi
9:00 AM91 °FSunny.17 mph28%29.86 "Hg10 mi
8:30 AM90 °FSunny.18 mph31%29.86 "Hg10 mi
8:00 AM88 °FSunny.17 mph33%29.86 "Hg10 mi
7:00 AM86 °FSunny.14 mph35%29.83 "Hg10 mi
6:30 AM86 °FSunny.15 mph38%29.83 "Hg10 mi
6:00 AM86 °FSunny.16 mph35%29.83 "Hg10 mi
5:30 AM86 °FClear.16 mph38%29.80 "Hg10 mi
5:00 AM86 °FClear.13 mph38%29.80 "Hg10 mi
4:30 AM86 °FClear.13 mph38%29.80 "Hg5 mi
4:00 AM86 °FClear.10 mph38%29.80 "Hg4 mi
3:30 AM88 °FClear.13 mph40%29.80 "Hg4 mi
3:00 AM86 °FClear.7 mph49%29.77 "Hg5 mi
2:30 AM86 °FClear.3 mph43%29.77 "Hg5 mi
2:00 AM84 °FClear.No wind45%29.77 "Hg10 mi
1:30 AM86 °FClear.3 mph43%29.77 "Hg5 mi
1:00 AM86 °FClear.7 mph43%29.77 "Hg5 mi
Weather by CustomWeather, © 2015

See weather overviewHow to use our weather pages